[[{"header":{"parameterUnit":"m.s-1","parameterCategory":1,"la1":30.2991,"la2":30.254,"lo1":-89.0895,"lo2":-89.0444,"dy":0.0017,"dx":0.0017,"nx":28,"ny":28,"refTime":"2024-04-01T21:00:00:Z","depth":0,"parameterNumber":2,"parameterNumberName":"U-component_of_WINDS"},"data":[0,0,0,0,0,0,0,0,0,0,0,0,0,0,0,0,0,0,0,0,0,0,0,0,0,0,0,0,0,0,0,0,0,0,0,0,0,0,0,0,0,0,0,0,0,0,0,0,0,0,0,0,0,0,0,0,0,0,-2.8115,-2.8116,0,-2.8202,-2.8203,-2.8204,-2.8236,-2.8235,-2.8235,-2.8235,-2.8321,-2.8324,-2.8327,0,0,0,0,0,0,0,0,0,0,0,0,0,-2.7974,-2.7977,-2.8115,-2.8116,-2.8118,-2.8202,-2.8203,-2.8204,-2.8236,-2.8235,-2.8235,-2.8235,-2.8321,-2.8324,-2.8327,0,0,0,0,0,0,0,0,0,0,0,0,0,-2.8046,-2.7977,-2.8115,-2.8143,-2.8147,-2.8202,-2.8203,-2.8205,-2.8236,-2.8235,-2.8235,-2.8234,-2.832,-2.8323,-2.8327,-2.836,0,0,-2.8339,-2.8341,0,0,0,0,0,0,0,0,-2.8041,-2.8051,-2.8138,-2.8141,-2.8145,-2.8208,-2.8185,-2.8257,-2.8236,-2.8202,-2.8235,-2.8234,-2.8284,-2.8291,-2.8308,-2.8364,-2.8368,-2.8339,-2.8342,-2.8343,-2.8344,0,0,0,0,0,0,0,-2.8037,-2.8047,-2.815,-2.8139,-2.8144,-2.8151,-2.8161,-2.8199,-2.8244,-2.8205,-2.8207,-2.8217,-2.8286,-2.8304,-2.831,-2.8369,-2.8339,-2.8343,-2.8345,-2.8347,-2.8456,-2.8457,0,0,0,0,0,0,-2.8027,-2.8043,-2.8147,-2.8152,-2.8091,-2.8154,-2.8165,-2.8188,-2.8244,-2.8252,-2.8218,-2.8218,-2.8298,-2.8305,-2.8313,-2.8355,-2.8343,-2.8347,-2.8349,-2.8455,-2.8456,-2.8457,0,0,0,0,0,0,-2.8024,-2.8036,-2.8143,-2.8098,-2.8113,-2.8157,-2.8183,-2.819,-2.8208,-2.8254,-2.8262,-2.8228,-2.8298,-2.8308,-2.8348,-2.8358,-2.8349,-2.8352,-2.8455,-2.8456,-2.8456,-2.8439,0,0,0,0,0,0,-2.802,-2.8035,-2.8048,-2.8098,-2.8115,-2.8178,-2.8184,-2.8192,-2.8215,-2.8217,-2.8266,-2.8273,-2.8298,-2.8342,-2.8352,-2.8364,-2.8355,-2.8454,-2.8455,-2.8456,-2.8439,-2.8439,-2.8439,0,0,0,0,0,-2.8015,-2.804,-2.8049,-2.8061,-2.8133,-2.8178,-2.8187,-2.8216,-2.8216,-2.8229,-2.8258,-2.8272,-2.8356,-2.8346,-2.8357,-2.837,-2.8454,-2.8455,-2.8456,-2.8438,-2.8439,-2.8439,0,0,0,0,0,0,-2.7989,-2.8047,-2.8058,-2.81,-2.8134,-2.8183,-2.8201,-2.8216,-2.825,-2.825,-2.8284,-2.8295,-2.8332,-2.8355,-2.8343,-2.8405,-2.8405,-2.8409,-2.8388,-2.8389,-2.8389,-2.8382,-2.8359,0,0,0,0,0,-2.7988,-2.8021,-2.8069,-2.8102,-2.8118,-2.8157,-2.8178,-2.8197,-2.8233,-2.8248,-2.828,-2.8314,-2.8348,-2.837,-2.8404,-2.8442,-2.8453,-2.8457,-2.8457,-2.8457,-2.8459,-2.8481,-2.8483,-2.8461,-2.8461,-2.8461,0,0,-2.7987,-2.8022,-2.8041,-2.8097,-2.8126,-2.8158,-2.8169,-2.8203,-2.8227,-2.8253,-2.8293,-2.8317,-2.8358,-2.8397,-2.8416,-2.8418,-2.8468,-2.8459,-2.8458,-2.8461,-2.8482,-2.8484,-2.8486,-2.8462,-2.8462,-2.8462,0,0,-2.8001,-2.8031,-2.8061,-2.809,-2.8134,-2.8159,-2.8166,-2.8214,-2.8231,-2.8272,-2.8292,-2.8321,-2.8379,-2.8407,-2.8429,-2.8453,-2.8466,-2.8463,-2.8465,-2.8485,-2.8487,-2.8489,-2.8497,-2.8499,-2.8466,-2.8466,-2.8466,0,-2.7993,-2.8043,-2.8075,-2.8108,-2.8131,-2.8157,-2.8187,-2.8213,-2.8265,-2.8281,-2.8282,-2.8356,-2.8385,-2.8431,-2.8437,-2.8454,-2.8462,-2.8458,-2.8484,-2.8486,-2.8488,-2.8496,-2.8499,-2.8465,-2.8465,-2.8465,-2.8465,0,-2.8032,-2.8066,-2.8085,-2.8135,-2.8161,-2.8193,-2.8228,-2.825,-2.8267,-2.8292,-2.8333,-2.8369,-2.8411,-2.8423,-2.844,-2.8471,-2.8471,-2.8478,-2.8479,-2.8489,-2.8497,-2.8501,-2.8464,-2.8464,-2.8465,-2.8465,0,0,-2.8031,-2.8099,-2.8105,-2.8128,-2.8178,-2.8205,-2.8237,-2.8278,-2.8297,-2.8332,-2.8359,-2.8408,-2.8414,-2.8439,-2.8459,-2.8477,-2.8493,-2.8482,-2.8483,-2.8482,-2.853,-2.8524,-2.8527,-2.8503,-2.8503,-2.8504,-2.8526,0,-2.8051,-2.8111,-2.8139,-2.8186,-2.8218,-2.8242,-2.827,-2.8304,-2.8328,-2.8358,-2.8384,-2.8418,-2.8425,-2.844,-2.8459,-2.8487,-2.8503,-2.8486,-2.8528,-2.8529,-2.8516,-2.8531,-2.8526,-2.8545,-2.853,-2.853,-2.8531,0,-2.8083,-2.8118,-2.8168,-2.8214,-2.8228,-2.8253,-2.8293,-2.8321,-2.8359,-2.8375,-2.8403,-2.8423,-2.8457,-2.8456,-2.8503,-2.849,-2.8509,-2.8526,-2.8527,-2.8532,-2.853,-2.8536,-2.8552,-2.8554,-2.8536,-2.8536,-2.8535,0,-2.8076,-2.8137,-2.8174,-2.8193,-2.8248,-2.8264,-2.8288,-2.8325,-2.8348,-2.8383,-2.8398,-2.8436,-2.8456,-2.8485,-2.8514,-2.8511,-2.8558,-2.856,-2.8572,-2.8571,-2.858,-2.8579,-2.8599,-2.8593,-2.8593,-2.8593,-2.8593,0,-2.8095,-2.8125,-2.8172,-2.8195,-2.8228,-2.8261,-2.8292,-2.8318,-2.8351,-2.8379,-2.8402,-2.8428,-2.8465,-2.8495,-2.8518,-2.8553,-2.8562,-2.8575,-2.8581,-2.8573,-2.8571,-2.8585,-2.8584,-2.8594,-2.8594,-2.8593,-2.8593,0,-2.8094,-2.8127,-2.8169,-2.8218,-2.8231,-2.8253,-2.8294,-2.8317,-2.8342,-2.8377,-2.8387,-2.8427,-2.8463,-2.8495,-2.8543,-2.8558,-2.8594,-2.8601,-2.8581,-2.8584,-2.8594,-2.8593,-2.8623,-2.8629,-2.862,-2.862,-2.862,0,-2.8104,-2.8127,-2.8178,-2.8198,-2.8222,-2.8254,-2.8278,-2.8311,-2.8334,-2.8379,-2.8396,-2.8434,-2.8467,-2.8523,-2.8556,-2.8593,-2.8601,-2.8609,-2.8606,-2.8598,-2.86,-2.8598,-2.8601,-2.8609,-2.8609,-2.8609,-2.8608,0,-2.8117,-2.8132,-2.8166,-2.8205,-2.8232,-2.8264,-2.8297,-2.8312,-2.8351,-2.8376,-2.8414,-2.8439,-2.8488,-2.8525,-2.8566,-2.8589,-2.8605,-2.8609,-2.8614,-2.8606,-2.8593,-2.8599,-2.8581,-2.8608,-2.8608,-2.8608,-2.8608,-2.8608,-2.8121,-2.8143,-2.8182,-2.8218,-2.8246,-2.8276,-2.83,-2.8329,-2.8361,-2.8404,-2.8421,-2.8459,-2.8496,-2.8552,-2.8576,-2.8606,-2.8609,-2.8615,-2.8617,-2.8618,-2.8616,-2.8588,-2.8613,-2.8613,-2.8614,-2.8614,-2.8614,0,-2.8135,-2.8162,-2.8195,-2.824,-2.8268,-2.8281,-2.8318,-2.8341,-2.8374,-2.8408,-2.8439,-2.8483,-2.8519,-2.8555,-2.8593,-2.861,-2.8618,-2.8619,-2.8618,-2.8623,-2.8612,-2.8604,-2.8612,-2.8612,-2.8612,-2.8612,-2.8611,-2.8611,-2.8146,-2.8183,-2.8202,-2.8253,-2.828,-2.8318,-2.8337,-2.8365,-2.8392,-2.8439,-2.847,-2.8493,-2.8528,-2.8568,-2.8602,-2.8612,-2.8624,-2.8623,-2.8634,-2.8624,-2.8623,-2.8623,-2.8616,-2.8626,-2.8626,-2.8642,-2.8642,-2.8643]},{"header":{"parameterUnit":"m.s-1","parameterCategory":1,"la1":30.2991,"la2":30.254,"lo1":-89.0895,"lo2":-89.0444,"dy":0.0017,"dx":0.0017,"nx":28,"ny":28,"refTime":"2024-04-01T21:00:00:Z","depth":0,"parameterNumber":3,"parameterNumberName":"V-component_of_WINDS"},"data":[0,0,0,0,0,0,0,0,0,0,0,0,0,0,0,0,0,0,0,0,0,0,0,0,0,0,0,0,0,0,0,0,0,0,0,0,0,0,0,0,0,0,0,0,0,0,0,0,0,0,0,0,0,0,0,0,0,0,6.2623,6.2624,0,6.2703,6.2704,6.2705,6.2669,6.2667,6.2665,6.2664,6.2741,6.2745,6.2749,0,0,0,0,0,0,0,0,0,0,0,0,0,6.2437,6.244,6.2623,6.2624,6.2625,6.2703,6.2704,6.2705,6.267,6.2667,6.2665,6.2663,6.274,6.2744,6.2749,0,0,0,0,0,0,0,0,0,0,0,0,0,6.2517,6.2441,6.2623,6.2617,6.2617,6.2703,6.2704,6.2705,6.267,6.2667,6.2664,6.2662,6.2738,6.2744,6.275,6.2844,0,0,6.2767,6.277,0,0,0,0,0,0,0,0,6.2513,6.2524,6.2617,6.2618,6.2618,6.2673,6.2667,6.2752,6.2671,6.265,6.2664,6.266,6.2721,6.2728,6.2749,6.2848,6.2851,6.2768,6.2771,6.2774,6.2776,0,0,0,0,0,0,0,6.2507,6.252,6.2655,6.2618,6.2619,6.2609,6.2617,6.2683,6.2701,6.2652,6.2649,6.2659,6.272,6.2743,6.275,6.2852,6.2768,6.2773,6.2776,6.2779,6.3035,6.3038,0,0,0,0,0,0,6.2502,6.2516,6.2652,6.2657,6.2557,6.2615,6.2624,6.2658,6.27,6.2703,6.2662,6.2657,6.2735,6.2744,6.2753,6.2869,6.2774,6.2779,6.2783,6.3032,6.3036,6.3039,0,0,0,0,0,0,6.2498,6.2515,6.2649,6.2586,6.2602,6.2621,6.266,6.2662,6.2685,6.2708,6.271,6.2682,6.2733,6.2745,6.2823,6.2871,6.2782,6.2787,6.3028,6.3033,6.3037,6.3099,0,0,0,0,0,0,6.2493,6.2513,6.255,6.2587,6.2606,6.2718,6.2663,6.2665,6.2695,6.2691,6.2728,6.2731,6.2732,6.2814,6.2828,6.2877,6.2792,6.3024,6.303,6.3036,6.3093,6.3106,6.3116,0,0,0,0,0,6.2486,6.2563,6.2552,6.2569,6.2653,6.2721,6.2732,6.2732,6.2699,6.2737,6.2751,6.273,6.2863,6.2822,6.2838,6.2889,6.302,6.3028,6.3035,6.3088,6.3103,6.3116,0,0,0,0,0,0,6.2529,6.2568,6.2556,6.2647,6.2682,6.2715,6.2762,6.2748,6.2791,6.2785,6.2782,6.279,6.2872,6.2888,6.2842,6.2984,6.2936,6.2947,6.2971,6.2986,6.2997,6.2992,6.2797,0,0,0,0,0,6.255,6.2604,6.2633,6.2711,6.2729,6.2743,6.2772,6.277,6.2805,6.2818,6.2839,6.2872,6.2922,6.2954,6.3001,6.3095,6.3103,6.3137,6.3149,6.3159,6.3169,6.3221,6.3237,6.3064,6.3064,6.3063,0,0,6.2592,6.2619,6.2653,6.272,6.2746,6.2802,6.2755,6.2814,6.2855,6.2827,6.2903,6.2919,6.2956,6.3043,6.3082,6.3059,6.3218,6.3168,6.3176,6.318,6.323,6.3247,6.3262,6.3069,6.3068,6.3067,0,0,6.2697,6.2723,6.2792,6.2819,6.2861,6.2869,6.2886,6.2922,6.2933,6.3009,6.2989,6.3037,6.3121,6.315,6.3175,6.3292,6.3275,6.3307,6.3369,6.342,6.3434,6.3446,6.349,6.3505,6.3317,6.3317,6.3317,0,6.2744,6.2828,6.2828,6.2891,6.2921,6.29,6.2969,6.2995,6.3049,6.307,6.3043,6.3151,6.3174,6.3268,6.3297,6.3317,6.3336,6.3304,6.3432,6.3445,6.3456,6.3497,6.3514,6.3321,6.332,6.332,6.332,0,6.2884,6.2943,6.2993,6.3048,6.3083,6.3149,6.3158,6.3194,6.3189,6.32,6.3279,6.3306,6.3359,6.338,6.3374,6.3474,6.3459,6.3432,6.3385,6.3476,6.3515,6.3531,6.3326,6.3325,6.3324,6.3323,0,0,6.3019,6.3075,6.3093,6.3119,6.3163,6.3208,6.3272,6.3326,6.3357,6.3394,6.3449,6.3522,6.3499,6.3527,6.3524,6.3569,6.3663,6.3537,6.3538,6.3561,6.3776,6.3797,6.3816,6.3651,6.3654,6.3656,6.3774,0,6.3129,6.3245,6.3247,6.3352,6.3407,6.3388,6.3444,6.3477,6.3489,6.3536,6.3549,6.3602,6.3566,6.3584,6.3627,6.3642,6.3706,6.3634,6.3702,6.3704,6.3695,6.3836,6.3858,6.3967,6.3789,6.3791,6.3793,0,6.3274,6.3319,6.343,6.3469,6.3492,6.3542,6.3593,6.3638,6.3675,6.368,6.3714,6.3704,6.377,6.3719,6.3809,6.376,6.3788,6.3799,6.3804,6.3811,6.3755,6.3849,6.4002,6.4019,6.3817,6.3815,6.3813,0,6.3364,6.3452,6.3531,6.3553,6.3599,6.3635,6.3656,6.369,6.3722,6.3765,6.3786,6.3835,6.3863,6.3901,6.3905,6.3868,6.3996,6.3946,6.4003,6.4003,6.4032,6.4031,6.4194,6.4047,6.4047,6.4047,6.4046,0,6.3488,6.3557,6.3572,6.3621,6.3698,6.3699,6.3775,6.3793,6.3823,6.3875,6.3859,6.3907,6.3909,6.3958,6.3961,6.4036,6.4048,6.4055,6.4055,6.4057,6.4057,6.4077,6.407,6.4051,6.405,6.4049,6.4048,0,6.3602,6.3615,6.37,6.3737,6.3748,6.3803,6.3835,6.3881,6.3892,6.3957,6.3972,6.399,6.4047,6.4054,6.412,6.4122,6.4213,6.4204,6.4202,6.4201,6.4259,6.4254,6.4442,6.4468,6.4302,6.4304,6.4305,0,6.3682,6.3735,6.3779,6.3813,6.3837,6.3891,6.3925,6.3928,6.3964,6.4011,6.4051,6.4107,6.4152,6.4244,6.4262,6.4312,6.4306,6.4368,6.4313,6.4314,6.4309,6.4307,6.4313,6.4379,6.4381,6.4382,6.4384,0,6.3822,6.3826,6.3876,6.393,6.3971,6.4012,6.4051,6.408,6.4088,6.4128,6.4188,6.4223,6.4291,6.4347,6.4398,6.4417,6.4403,6.4401,6.4417,6.4421,6.4418,6.4423,6.4233,6.4397,6.4395,6.4394,6.4394,6.4393,6.3923,6.397,6.401,6.4066,6.4096,6.4133,6.418,6.4197,6.4247,6.4305,6.4303,6.4369,6.4404,6.4471,6.4494,6.4545,6.4524,6.4547,6.4554,6.456,6.4567,6.4409,6.4554,6.4553,6.4553,6.4553,6.4552,0,6.4065,6.4089,6.4141,6.4198,6.4243,6.4226,6.4268,6.4307,6.4365,6.4401,6.4446,6.4515,6.4569,6.4591,6.4645,6.4681,6.4676,6.4695,6.4693,6.4698,6.4581,6.4563,6.4699,6.4699,6.4699,6.4699,6.4699,6.4698,6.4144,6.4224,6.4233,6.4328,6.4351,6.4417,6.4443,6.4477,6.4506,6.4584,6.463,6.4644,6.4675,6.473,6.4779,6.4784,6.4805,6.4828,6.4831,6.4721,6.4706,6.4692,6.4675,6.4832,6.4833,6.4944,6.4945,6.4946]}]]